Regional Weather Roundup
Issued by NWS

Home | Current Version | Previous Version | Text Only | Print | Product List | Glossary Off
Versions: 1 2 3 4 5 6 7 8 9 10 11 12 13 14 15 16 17 18 19 20 21 22 23 24 25 26 27 28 29 30 31 32 33 34 35 36 37 38 39 40 41 42 43 44 45 46 47 48 49 50

000
ASUS44 KMEG 280000
RWRTN
TENNESSEE HOURLY STATE WEATHER ROUNDUP
NATIONAL WEATHER SERVICE MEMPHIS TN
700 PM CDT THU APR 27 2017

TNZ002-004-019-021-049-052-054-088>092-280100-
WEST TENNESSEE

CITY           SKY/WX    TMP DP  RH WIND       PRES   REMARKS
MEMPHIS INTL   PTCLDY    66  50  56 S6        29.80S
NWS MEMPHIS      N/A     68 N/A N/A MISG        N/A
JACKSON        CLEAR     65  51  60 SE3       29.81F
DYERSBURG      CLEAR     65  50  58 S3        29.82S
PARIS          CLEAR     61  48  63 CALM      29.84S
$$

TNZ008-025-027-028-033-062-065-066-280100-
NORTH MIDDLE TENNESSEE

CITY           SKY/WX    TMP DP  RH WIND       PRES   REMARKS
NASHVILLE      PTCLDY    67  50  54 W3        29.83F
CLARKSVILLE    CLOUDY    63  49  60 SW6       29.84R
SMYRNA         CLEAR     68  51  54 W6        29.84S
CROSSVILLE     CLEAR     66  49  54 W9        29.87R
$$

TNZ061-075-076-078-094-096-097-280100-
SOUTH MIDDLE TENNESSEE

CITY           SKY/WX    TMP DP  RH WIND       PRES   REMARKS
WINCHESTER     CLEAR     70  54  56 CALM      29.84F
COLUMBIA       CLEAR     66  52  59 CALM      29.82S
SHELBYVILLE    CLEAR     70  55  60 W3        29.84S
$$

TNZ017-018-042-046-047-280100-
NORTHEAST TENNESSEE

CITY           SKY/WX    TMP DP  RH WIND       PRES   REMARKS
TRI CITIES     MOCLDY    67  64  90 CALM      29.85R
$$

TNZ012-013-036-069-073-074-280100-
CENTRAL EAST TENNESSEE

CITY           SKY/WX    TMP DP  RH WIND       PRES   REMARKS
KNOXVILLE      PTCLDY    73  57  57 W8        29.81R
OAK RIDGE      PTCLDY    74  58  57 VRB6      29.82R
GATLINBURG     PTCLDY    73  61  64 W5        29.81S
$$

TNZ083-085-099-280100-
SOUTHEAST TENNESSEE

CITY           SKY/WX    TMP DP  RH WIND       PRES   REMARKS
CHATTANOOGA    PTCLDY    76  52  43 SW6       29.82R
$$

SKY/WX REPORTED AS FAIR MEANS FEW OR NO CLOUDS BELOW
12 THOUSAND FEET.





USA.gov is the U.S. government's official web portal to all federal, state and local government web resources and services.